Weather History for Eastman, GA

Change the Weather History Date:

Saturday, May 3, 2014

  Actual Average Record
Temperature  
Mean Temperature 67 °F -  
Max Temperature 79 °F 82 °F 79 °F (2014)
Min Temperature 55 °F 56 °F 55 °F (2014)
Cooling Degree Days 2    
Growing Degree Days 17 (Base 50)    
Moisture  
Dew Point 52 °F    
Average Humidity 67    
Maximum Humidity 100    
Minimum Humidity 30    
Precipitation  
Precipitation 0.00 in - - ()
Sea Level Pressure  
Sea Level Pressure 30.01 in    
Wind  
Wind Speed 2 mph (NNW)    
Max Wind Speed 9 mph    
Max Gust Speed 16 mph    
Visibility 10 miles    
Events      
Averages and records for this station are not official NWS values.
T = Trace of Precipitation, MM = Missing Value Source: NWS Daily Summary

Daily Weather History Graph

Daily Weather History Graph

Search for Another Location

Airport:

Trip Planner

Search our weather history database for the weather conditions in past years. The results will help you decide how hot, cold, wet, or windy it might be!

Date:

Astronomy

May. 03, 2014 Rise Set
Actual Time 6:44 AM EDT 8:14 PM EDT
Civil Twilight 6:18 AM EDT 8:41 PM EDT
Nautical Twilight 5:46 AM EDT 9:12 PM EDT
Astronomical Twilight 5:14 AM EDT 9:45 PM EDT
Moon 10:15 AM EDT (5/3) No Moon Set
Length of Visible Light 14h 22m
Length of Day
13h 30m
Waxing Crescent, 19% of the Moon is Illuminated
May 3
Waxing Crescent
May 6
First Quarter
May 14
Full
May 21
Last Quarter
May 28
New

Hourly Weather History & Observations

Time (EDT) Temp. Dew Point Humidity Pressure Visibility Wind Dir Wind Speed Gust Speed Precip Events Conditions
12:15 AM 55.8 °F 55.8 °F 100% 29.98 in 10.0 mi Calm Calm - N/A   Clear
12:35 AM 58.3 °F 58.1 °F 99% 29.98 in 10.0 mi Calm Calm - N/A   Clear
12:55 AM 55.9 °F 55.9 °F 100% 29.98 in 10.0 mi Calm Calm - N/A   Clear
1:15 AM 56.1 °F 56.1 °F 100% 29.98 in 10.0 mi Calm Calm - N/A   Clear
1:35 AM 58.8 °F 57.4 °F 95% 29.97 in 10.0 mi Calm Calm - N/A   Clear
1:55 AM 59.4 °F 57.2 °F 93% 29.97 in 10.0 mi Calm Calm - N/A   Clear
2:15 AM 59.5 °F 57.0 °F 91% 29.97 in 10.0 mi Calm Calm - N/A   Clear
2:35 AM 60.3 °F 57.2 °F 90% 29.97 in 10.0 mi Calm Calm - N/A   Mostly Cloudy
2:55 AM 59.9 °F 57.2 °F 91% 29.96 in 10.0 mi Calm Calm - N/A   Overcast
3:15 AM 60.1 °F 56.7 °F 88% 29.97 in 10.0 mi Calm Calm - N/A   Scattered Clouds
3:35 AM 59.9 °F 57.0 °F 90% 29.98 in 10.0 mi WSW 4.6 mph - N/A   Clear
3:55 AM 59.7 °F 57.2 °F 91% 29.98 in 10.0 mi West 3.5 mph - N/A   Clear
4:15 AM 59.2 °F 57.0 °F 93% 29.98 in 10.0 mi Calm Calm - N/A   Clear
4:35 AM 59.0 °F 57.2 °F 94% 29.98 in 10.0 mi Calm Calm - N/A   Scattered Clouds
4:55 AM 59.9 °F 57.2 °F 91% 29.99 in 10.0 mi Calm Calm - N/A   Scattered Clouds
5:15 AM 60.3 °F 57.2 °F 90% 29.98 in 10.0 mi Calm Calm - N/A   Clear
5:35 AM 59.2 °F 57.4 °F 94% 29.98 in 10.0 mi Calm Calm - N/A   Clear
5:55 AM 58.6 °F 57.4 °F 96% 29.99 in 10.0 mi Calm Calm - N/A   Clear
6:15 AM 58.1 °F 57.2 °F 97% 29.99 in 10.0 mi Calm Calm - N/A   Clear
6:35 AM 57.2 °F 56.7 °F 98% 29.99 in 10.0 mi Calm Calm - N/A   Clear
6:55 AM 55.9 °F 55.9 °F 100% 30.00 in 10.0 mi Calm Calm - N/A   Clear
7:15 AM 56.7 °F 56.3 °F 99% 30.00 in 10.0 mi Calm Calm - N/A   Clear
7:35 AM 56.8 °F 56.3 °F 98% 30.01 in 10.0 mi Calm Calm - N/A   Clear
7:55 AM 58.5 °F 57.2 °F 96% 30.00 in 10.0 mi Calm Calm - N/A   Clear
8:15 AM 61.0 °F 57.0 °F 87% 30.02 in 10.0 mi North 3.5 mph - N/A   Clear
8:35 AM 61.3 °F 55.4 °F 81% 30.03 in 10.0 mi Calm Calm - N/A   Clear
8:55 AM 61.7 °F 55.0 °F 79% 30.04 in 10.0 mi NW 3.5 mph - N/A   Clear
9:15 AM 62.6 °F 55.0 °F 76% 30.04 in 10.0 mi Calm Calm - N/A   Clear
9:35 AM 64.6 °F 54.7 °F 70% 30.04 in 10.0 mi Calm Calm - N/A   Clear
9:55 AM 65.3 °F 55.0 °F 69% 30.05 in 10.0 mi Calm Calm - N/A   Clear
10:15 AM 67.8 °F 54.0 °F 61% 30.05 in 10.0 mi NNW 5.8 mph - N/A   Clear
10:35 AM 68.9 °F 49.3 °F 50% 30.05 in 10.0 mi North 4.6 mph - N/A   Clear
10:55 AM 70.3 °F 50.0 °F 48% 30.05 in 10.0 mi North 5.8 mph - N/A   Clear
11:15 AM 72.1 °F 44.8 °F 37% 30.05 in 10.0 mi North 6.9 mph - N/A   Clear
11:35 AM 73.4 °F 44.8 °F 36% 30.05 in 10.0 mi North 6.9 mph - N/A   Clear
11:55 AM 72.9 °F 41.9 °F 33% 30.06 in 10.0 mi NNE 6.9 mph - N/A   Clear
12:15 PM 74.5 °F 44.4 °F 34% 30.07 in 10.0 mi NW 5.8 mph - N/A   Clear
12:35 PM 75.0 °F 45.5 °F 35% 30.06 in 10.0 mi WNW 9.2 mph - N/A   Clear
12:55 PM 75.0 °F 44.6 °F 34% 30.05 in 10.0 mi WNW 6.9 mph - N/A   Clear
1:15 PM 75.2 °F 44.8 °F 34% 30.05 in 10.0 mi NNW 8.1 mph - N/A   Clear
1:35 PM 75.6 °F 44.6 °F 33% 30.05 in 10.0 mi NNW 8.1 mph - N/A   Clear
1:55 PM 76.3 °F 44.6 °F 32% 30.04 in 10.0 mi NW 8.1 mph - N/A   Clear
2:15 PM 77.0 °F 45.3 °F 32% 30.03 in 10.0 mi NNW 6.9 mph - N/A   Clear
2:35 PM 77.2 °F 45.3 °F 32% 30.03 in 10.0 mi NNW 9.2 mph 16.1 mph N/A   Clear
2:55 PM 77.5 °F 45.7 °F 32% 30.02 in 10.0 mi WNW 9.2 mph - N/A   Clear
3:15 PM 77.5 °F 45.3 °F 32% 30.02 in 10.0 mi North 6.9 mph - N/A   Clear
3:35 PM 77.9 °F 45.9 °F 32% 30.01 in 10.0 mi NNW 9.2 mph - N/A   Clear
3:55 PM 78.8 °F 46.0 °F 31% 30.00 in 10.0 mi NNW 5.8 mph - N/A   Clear
4:15 PM 79.0 °F 45.3 °F 30% 29.99 in 10.0 mi North 9.2 mph - N/A   Clear
4:35 PM 79.0 °F 46.2 °F 31% 29.99 in 10.0 mi NW 9.2 mph - N/A   Clear
4:55 PM 79.2 °F 46.4 °F 31% 29.99 in 10.0 mi North 4.6 mph - N/A   Clear
5:15 PM 79.7 °F 47.3 °F 32% 29.99 in 10.0 mi North 6.9 mph - N/A   Clear
5:35 PM 79.3 °F 47.5 °F 33% 29.99 in 10.0 mi NW 5.8 mph - N/A   Clear
5:55 PM 79.0 °F 46.2 °F 31% 29.99 in 10.0 mi NNW 6.9 mph - N/A   Clear
6:15 PM 79.2 °F 47.5 °F 33% 29.99 in 10.0 mi NW 5.8 mph - N/A   Clear
6:35 PM 78.8 °F 46.9 °F 32% 29.99 in 10.0 mi WNW 4.6 mph - N/A   Clear
6:55 PM 78.1 °F 47.5 °F 34% 29.99 in 10.0 mi WNW 6.9 mph - N/A   Clear
7:15 PM 77.4 °F 47.3 °F 35% 30.00 in 10.0 mi NW 3.5 mph - N/A   Clear
7:35 PM 76.1 °F 49.1 °F 39% 30.01 in 10.0 mi Calm Calm - N/A   Clear
7:55 PM 72.9 °F 53.6 °F 51% 30.01 in 10.0 mi Calm Calm - N/A   Clear
8:15 PM 68.9 °F 55.4 °F 62% 30.02 in 10.0 mi Calm Calm - N/A   Clear
8:35 PM 67.3 °F 53.6 °F 61% 30.02 in 10.0 mi Calm Calm - N/A   Clear
8:55 PM 64.2 °F 55.4 °F 73% 30.03 in 10.0 mi Calm Calm - N/A   Clear
9:15 PM 62.8 °F 55.8 °F 78% 30.04 in 10.0 mi Calm Calm - N/A   Clear
9:35 PM 61.7 °F 56.3 °F 82% 30.04 in 10.0 mi Calm Calm - N/A   Clear
9:55 PM 60.3 °F 56.7 °F 88% 30.05 in 10.0 mi Calm Calm - N/A   Clear
10:15 PM 59.5 °F 57.4 °F 93% 30.05 in 10.0 mi Calm Calm - N/A   Clear
10:35 PM 59.2 °F 58.5 °F 97% 30.05 in 10.0 mi Calm Calm - N/A   Clear
10:55 PM 58.5 °F 58.3 °F 99% 30.06 in 10.0 mi Calm Calm - N/A   Clear
11:15 PM 58.5 °F 58.5 °F 100% 30.07 in 10.0 mi Calm Calm - N/A   Clear
11:35 PM 58.1 °F 58.1 °F 100% 30.07 in 10.0 mi Calm Calm - N/A   Clear
11:55 PM 57.6 °F 57.6 °F 100% 30.07 in 10.0 mi Calm Calm - N/A   Clear